When you browse on this site, cookies collect data to enhance your experience and personalize the content and advertising you see.
Visit our Privacy Policy to learn more. By continuing to use the site, you agree to this use of cookies and data.
  • In United Kingdom
  • List of Countries
  • For 7 days
  • Water Temperature
  • Weather Map
  • Weather Widgets
  • user-avatar
    Login

    Hourly Weather Gaborone

    Today, 19 February, Wednesday

    Time Temperature Precipitation Wind Pressure Humidity
    00:00 +26°C° 0 mm 2 mps 678 mmHg 50%
    01:00 +25°C° 0 mm 2 mps 678 mmHg 53%
    02:00 +25°C° 0 mm 3 mps 678 mmHg 50%
    03:00 +24°C° 0 mm 3 mps 678 mmHg 56%
    04:00 +24°C° 0 mm 3 mps 678 mmHg 62%
    05:00 +22°C° 0 mm 3 mps 678 mmHg 68%
    06:00 +23°C° 0 mm 4 mps 678 mmHg 65%
    07:00 +25°C° 0 mm 5 mps 679 mmHg 61%
    08:00 +26°C° 0 mm 5 mps 679 mmHg 57%
    09:00 +28°C° 0 mm 5 mps 680 mmHg 51%
    10:00 +30°C° 0 mm 5 mps 680 mmHg 45%
    11:00 +33°C° 0 mm 5 mps 680 mmHg 38%
    12:00 +34°C° 0 mm 4 mps 679 mmHg 34%
    13:00 +35°C° 0 mm 4 mps 679 mmHg 29%
    14:00 +37°C° 0 mm 4 mps 678 mmHg 25%
    15:00 +37°C° 0 mm 4 mps 678 mmHg 24%
    16:00 +37°C° 0 mm 3 mps 677 mmHg 23%
    17:00 +37°C° 0 mm 3 mps 677 mmHg 22%
    18:00 +35°C° 0 mm 3 mps 677 mmHg 25%
    19:00 +32°C° 0 mm 2 mps 676 mmHg 28%
    20:00 +30°C° 0 mm 2 mps 676 mmHg 31%
    21:00 +29°C° 0 mm 2 mps 676 mmHg 33%
    22:00 +28°C° 0 mm 2 mps 676 mmHg 35%
    23:00 +27°C° 0 mm 1 mps 677 mmHg 36%

    Tomorrow, 20 February, Thursday

    Time Temperature Precipitation Wind Pressure Humidity
    00:00 +26°C° 0 mm 2 mps 677 mmHg 39%
    01:00 +26°C° 0 mm 2 mps 677 mmHg 42%
    02:00 +25°C° 0 mm 2 mps 677 mmHg 44%
    03:00 +25°C° 0 mm 2 mps 677 mmHg 48%
    04:00 +24°C° 0 mm 2 mps 677 mmHg 51%
    05:00 +24°C° 0 mm 2 mps 677 mmHg 54%
    06:00 +25°C° 0 mm 3 mps 677 mmHg 54%
    07:00 +25°C° 0 mm 4 mps 677 mmHg 53%
    08:00 +26°C° 0 mm 4 mps 678 mmHg 52%
    09:00 +28°C° 0 mm 4 mps 678 mmHg 46%
    10:00 +30°C° 0 mm 4 mps 678 mmHg 41%
    11:00 +33°C° 0 mm 3 mps 678 mmHg 35%
    12:00 +35°C° 0 mm 3 mps 678 mmHg 31%
    13:00 +36°C° 0 mm 3 mps 677 mmHg 27%
    14:00 +37°C° 0 mm 2 mps 677 mmHg 24%
    15:00 +37°C° 0 mm 2 mps 676 mmHg 23%
    16:00 +37°C° 0 mm 2 mps 676 mmHg 22%
    17:00 +37°C° 0 mm 2 mps 675 mmHg 21%
    18:00 +35°C° 0 mm 2 mps 675 mmHg 26%
    19:00 +32°C° 0 mm 2 mps 675 mmHg 31%
    20:00 +30°C° 0 mm 2 mps 675 mmHg 36%
    21:00 +29°C° 0 mm 2 mps 675 mmHg 38%
    22:00 +29°C° 0 mm 1 mps 675 mmHg 40%
    23:00 +28°C° 0 mm 1 mps 675 mmHg 42%

    Day after tomorrow, 21 February, Friday

    Time Temperature Precipitation Wind Pressure Humidity
    00:00 +27°C° 0 mm 1 mps 675 mmHg 44%
    01:00 +27°C° 0 mm 1 mps 675 mmHg 45%
    02:00 +26°C° 0 mm 1 mps 675 mmHg 47%
    03:00 +26°C° 0 mm 1 mps 675 mmHg 49%
    04:00 +26°C° 0 mm 1 mps 675 mmHg 50%
    05:00 +25°C° 0 mm 1 mps 675 mmHg 52%
    06:00 +26°C° 0 mm 1 mps 676 mmHg 49%
    07:00 +28°C° 0 mm 1 mps 676 mmHg 46%
    08:00 +29°C° 0 mm 1 mps 677 mmHg 43%
    15:00 +38°C° 0 mm 2 mps 676 mmHg 25%
    16:00 +38°C° 0 mm 2 mps 675 mmHg 25%
    17:00 +37°C° 0 mm 2 mps 675 mmHg 26%
    18:00 +35°C° 0 mm 2 mps 675 mmHg 30%
    19:00 +32°C° 0 mm 2 mps 675 mmHg 33%
    20:00 +30°C° 0 mm 2 mps 675 mmHg 37%
    21:00 +30°C° 0 mm 2 mps 675 mmHg 39%
    22:00 +29°C° 0 mm 2 mps 675 mmHg 41%
    23:00 +28°C° 0 mm 1 mps 675 mmHg 44%

    22 February, Saturday

    Time Temperature Precipitation Wind Pressure Humidity
    00:00 +28°C° 0 mm 2 mps 675 mmHg 45%
    01:00 +28°C° 0 mm 3 mps 675 mmHg 46%
    02:00 +28°C° 0 mm 3 mps 675 mmHg 48%
    03:00 +27°C° 0 mm 3 mps 675 mmHg 54%
    04:00 +26°C° 0 mm 3 mps 675 mmHg 60%
    05:00 +26°C° 0 mm 3 mps 675 mmHg 66%
    06:00 +26°C° 0 mm 4 mps 676 mmHg 63%
    07:00 +27°C° 0 mm 4 mps 676 mmHg 59%
    08:00 +28°C° 0 mm 5 mps 676 mmHg 56%
    09:00 +30°C° 0 mm 5 mps 676 mmHg 49%
    10:00 +33°C° 0 mm 4 mps 677 mmHg 42%
    11:00 +35°C° 0 mm 4 mps 677 mmHg 36%
    12:00 +36°C° 0 mm 4 mps 676 mmHg 33%
    13:00 +37°C° 0 mm 3 mps 675 mmHg 29%
    14:00 +38°C° 0 mm 3 mps 675 mmHg 26%
    15:00 +38°C° 0.1 mm 3 mps 674 mmHg 28%
    16:00 +37°C° 0.1 mm 3 mps 674 mmHg 29%
    17:00 +36°C° 0.1 mm 3 mps 673 mmHg 30%
    18:00 +34°C° 0.1 mm 3 mps 673 mmHg 35%
    19:00 +33°C° 0.1 mm 3 mps 674 mmHg 40%
    20:00 +30°C° 0.1 mm 3 mps 674 mmHg 45%
    21:00 +28°C° 0.1 mm 4 mps 674 mmHg 54%
    22:00 +27°C° 0.1 mm 5 mps 675 mmHg 62%
    23:00 +24°C° 0.1 mm 6 mps 675 mmHg 71%

    23 February, Sunday

    Time Temperature Precipitation Wind Pressure Humidity
    00:00 +23°C° 0.1 mm 5 mps 675 mmHg 73%
    01:00 +24°C° 0.1 mm 3 mps 675 mmHg 76%
    02:00 +23°C° 0.1 mm 2 mps 674 mmHg 79%
    03:00 +23°C° 0.1 mm 2 mps 674 mmHg 80%
    04:00 +22°C° 0.1 mm 3 mps 674 mmHg 81%
    05:00 +22°C° 0.1 mm 3 mps 674 mmHg 83%
    06:00 +24°C° 0 mm 3 mps 675 mmHg 78%
    07:00 +25°C° 0 mm 2 mps 675 mmHg 74%
    08:00 +25°C° 0 mm 2 mps 675 mmHg 69%
    09:00 +27°C° 0 mm 2 mps 676 mmHg 61%
    10:00 +29°C° 0 mm 2 mps 676 mmHg 52%
    11:00 +31°C° 0 mm 2 mps 676 mmHg 43%
    12:00 +32°C° 0 mm 2 mps 676 mmHg 41%
    13:00 +34°C° 0 mm 2 mps 676 mmHg 39%
    14:00 +34°C° 0 mm 2 mps 675 mmHg 37%
    15:00 +34°C° 0 mm 2 mps 675 mmHg 37%
    16:00 +35°C° 0 mm 2 mps 675 mmHg 36%
    17:00 +35°C° 0 mm 2 mps 674 mmHg 35%
    18:00 +30°C° 1 mm 3 mps 674 mmHg 49%
    19:00 +27°C° 1 mm 4 mps 674 mmHg 63%
    20:00 +23°C° 1 mm 6 mps 674 mmHg 77%
    21:00 +22°C° 0.8 mm 6 mps 675 mmHg 78%
    22:00 +22°C° 0.8 mm 6 mps 676 mmHg 79%
    23:00 +21°C° 0.8 mm 6 mps 676 mmHg 81%

    24 February, Monday

    Time Temperature Precipitation Wind Pressure Humidity
    00:00 +21°C° 0.2 mm 6 mps 676 mmHg 82%
    01:00 +20°C° 0.2 mm 6 mps 676 mmHg 84%
    02:00 +20°C° 0.2 mm 5 mps 676 mmHg 85%
    03:00 +20°C° 0 mm 5 mps 676 mmHg 85%
    04:00 +20°C° 0 mm 5 mps 676 mmHg 85%
    05:00 +21°C° 0 mm 5 mps 676 mmHg 85%
    06:00 +20°C° 0.1 mm 5 mps 676 mmHg 85%
    07:00 +20°C° 0.1 mm 5 mps 676 mmHg 85%
    08:00 +20°C° 0.1 mm 5 mps 677 mmHg 85%
    09:00 +22°C° 0 mm 5 mps 677 mmHg 77%
    10:00 +23°C° 0 mm 5 mps 677 mmHg 68%
    11:00 +26°C° 0 mm 6 mps 678 mmHg 60%
    12:00 +27°C° 0 mm 6 mps 678 mmHg 55%
    13:00 +28°C° 0 mm 5 mps 678 mmHg 51%
    14:00 +29°C° 0 mm 5 mps 677 mmHg 47%
    15:00 +29°C° 0.2 mm 5 mps 677 mmHg 49%
    16:00 +28°C° 0.2 mm 5 mps 677 mmHg 52%
    17:00 +28°C° 0.2 mm 4 mps 676 mmHg 55%
    18:00 +26°C° 0.3 mm 4 mps 676 mmHg 60%
    19:00 +25°C° 0.3 mm 4 mps 677 mmHg 65%
    20:00 +22°C° 0.3 mm 4 mps 677 mmHg 70%
    21:00 +22°C° 0 mm 3 mps 677 mmHg 70%
    22:00 +21°C° 0 mm 3 mps 677 mmHg 70%
    23:00 +21°C° 0 mm 3 mps 678 mmHg 70%
    Show more